Weather History for Miami, FL

Change the Weather History Date:

Monday, November 4, 2013

  Actual Average Record
Temperature  
Mean Temperature 79 °F 77 °F  
Max Temperature 83 °F 83 °F 89 °F (1988)
Min Temperature 74 °F 70 °F 50 °F (1966)
Degree Days  
Heating Degree Days 0 0  
Month to date heating degree days 0 0  
Since 1 July heating degree days 0 0  
Cooling Degree Days 14 12  
Month to date cooling degree days 57 48  
Year to date cooling degree days 4227 4120  
Growing Degree Days 28 (Base 50)    
Moisture  
Dew Point 63 °F    
Average Humidity 56    
Maximum Humidity 69    
Minimum Humidity 42    
Precipitation  
Precipitation 0.03 in 0.14 in 4.96 in (1998)
Month to date precipitation 0.03 0.56  
Year to date precipitation 60.05 57.15  
Snow  
Snow 0.00 in - - ()
Month to date snowfall 0.0  
Since 1 July snowfall 0.0  
Since 1 September snowfall 0.0  
Snow Depth 0.00 in    
Sea Level Pressure  
Sea Level Pressure 30.03 in    
Wind  
Wind Speed 14 mph (NE)    
Max Wind Speed 23 mph    
Max Gust Speed 35 mph    
Visibility 9 miles    
Events Rain    
T = Trace of Precipitation, MM = Missing Value Source: NWS Daily Summary

Daily Weather History Graph

Daily Weather History Graph

Search for Another Location

Airport:

Trip Planner

Search our weather history database for the weather conditions in past years. The results will help you decide how hot, cold, wet, or windy it might be!

Date:

Astronomy

Nov. 04, 2013 Rise Set
Actual Time 6:31 AM EST 5:37 PM EST
Civil Twilight 6:07 AM EST 6:01 PM EST
Nautical Twilight 5:40 AM EST 6:28 PM EST
Astronomical Twilight 5:13 AM EST 6:55 PM EST
Moon 7:35 AM EST (11/4) 6:47 PM EST (11/4)
Length of Visible Light 11h 53m
Length of Day
11h 05m
New Moon, 2% of the Moon is Illuminated
Nov 4
New Moon
Nov 10
First Quarter
Nov 17
Full
Nov 25
Last Quarter
Dec 2
New

Hourly Weather History & Observations

Time (EST) Temp. Heat Index Dew Point Humidity Pressure Visibility Wind Dir Wind Speed Gust Speed Precip Events Conditions
12:53 AM 75.9 °F - 62.1 °F 62% 30.02 in 10.0 mi NE 9.2 mph 18.4 mph N/A   Mostly Cloudy
1:53 AM 75.9 °F - 62.1 °F 62% 30.01 in 10.0 mi NE 12.7 mph 21.9 mph N/A   Mostly Cloudy
2:53 AM 75.9 °F - 62.1 °F 62% 30.01 in 9.0 mi NE 10.4 mph - 0.00 in Rain Light Rain
3:53 AM 75.9 °F - 61.0 °F 60% 30.00 in 10.0 mi NE 11.5 mph 23.0 mph 0.00 in   Mostly Cloudy
4:53 AM 75.9 °F - 60.1 °F 58% 30.01 in 10.0 mi ENE 10.4 mph 19.6 mph N/A   Mostly Cloudy
5:53 AM 75.0 °F - 60.1 °F 60% 30.01 in 10.0 mi NE 12.7 mph 19.6 mph N/A   Mostly Cloudy
6:53 AM 75.0 °F - 59.0 °F 57% 30.03 in 10.0 mi NE 12.7 mph 18.4 mph N/A   Scattered Clouds
7:53 AM 77.0 °F - 60.1 °F 56% 30.06 in 10.0 mi NE 10.4 mph - N/A   Scattered Clouds
8:53 AM 78.1 °F - 57.0 °F 48% 30.07 in 10.0 mi NE 12.7 mph 20.7 mph N/A   Scattered Clouds
9:53 AM 81.0 °F 80.8 °F 55.9 °F 42% 30.08 in 10.0 mi NE 15.0 mph 24.2 mph N/A   Scattered Clouds
10:53 AM 82.0 °F 81.6 °F 55.9 °F 41% 30.07 in 10.0 mi ENE 13.8 mph 21.9 mph N/A   Scattered Clouds
11:53 AM 82.9 °F 83.3 °F 61.0 °F 47% 30.05 in 10.0 mi ENE 18.4 mph 26.5 mph N/A   Scattered Clouds
12:53 PM 82.0 °F 83.4 °F 64.0 °F 54% 30.02 in 10.0 mi ENE 16.1 mph 25.3 mph N/A   Mostly Cloudy
1:53 PM 80.1 °F 82.1 °F 66.0 °F 62% 30.01 in 10.0 mi ENE 16.1 mph 29.9 mph N/A   Mostly Cloudy
2:53 PM 80.1 °F 82.3 °F 66.9 °F 64% 30.01 in 10.0 mi NE 17.3 mph 26.5 mph 0.00 in   Mostly Cloudy
3:53 PM 73.9 °F - 69.1 °F 85% 30.02 in 6.0 mi ENE 13.8 mph 19.6 mph 0.02 in Rain Light Rain
4:02 PM 75.2 °F - 68.0 °F 78% 30.03 in 2.0 mi ENE 10.4 mph 20.7 mph 0.00 in Rain Light Rain
4:14 PM 73.4 °F - 68.0 °F 83% 30.02 in 5.0 mi ENE 11.5 mph 21.9 mph 0.01 in Rain Light Rain
4:53 PM 77.0 °F - 66.9 °F 71% 30.01 in 10.0 mi NE 16.1 mph 23.0 mph 0.01 in   Overcast
5:53 PM 77.0 °F - 66.9 °F 71% 30.02 in 7.0 mi NE 15.0 mph 21.9 mph 0.00 in   Overcast
6:53 PM 77.0 °F - 66.0 °F 69% 30.03 in 7.0 mi NE 17.3 mph 26.5 mph N/A   Overcast
7:53 PM 77.0 °F - 66.0 °F 69% 30.05 in 10.0 mi ENE 20.7 mph 29.9 mph 0.00 in Rain Light Rain
8:53 PM 77.0 °F - 64.9 °F 66% 30.06 in 10.0 mi ENE 18.4 mph 29.9 mph 0.00 in   Mostly Cloudy
9:53 PM 77.0 °F - 64.0 °F 64% 30.06 in 10.0 mi ENE 12.7 mph 21.9 mph N/A   Scattered Clouds
10:53 PM 77.0 °F - 64.9 °F 66% 30.06 in 10.0 mi NE 12.7 mph 20.7 mph N/A   Mostly Cloudy
11:53 PM 77.0 °F - 66.0 °F 69% 30.05 in 9.0 mi ENE 17.3 mph 26.5 mph 0.00 in   Overcast